Hourly Weather Alibaevskoe

Today, 3 March, Wednesday

Time Temperature Precipitation Wind Pressure Humidity
00:00 -15°C° 0 mm 7 mps 720 mmHg 88%
01:00 -14°C° 0 mm 7 mps 720 mmHg 88%
02:00 -13°C° 0 mm 7 mps 720 mmHg 89%
03:00 -13°C° 0 mm 7 mps 719 mmHg 89%
04:00 -12°C° 0 mm 7 mps 718 mmHg 90%
05:00 -12°C° 0.1 mm 7 mps 718 mmHg 91%
06:00 -10°C° 0.1 mm 6 mps 718 mmHg 91%
07:00 -10°C° 0.1 mm 6 mps 717 mmHg 92%
08:00 -9°C° 0.1 mm 7 mps 717 mmHg 91%
09:00 -8°C° 0.1 mm 7 mps 717 mmHg 90%
10:00 -7°C° 0.1 mm 8 mps 717 mmHg 90%
11:00 -7°C° 0 mm 8 mps 717 mmHg 89%
12:00 -6°C° 0 mm 8 mps 717 mmHg 89%
13:00 -6°C° 0 mm 8 mps 717 mmHg 88%
14:00 -6°C° 0.1 mm 7 mps 717 mmHg 89%
15:00 -6°C° 0.1 mm 7 mps 717 mmHg 90%
16:00 -6°C° 0.1 mm 7 mps 716 mmHg 91%
17:00 -5°C° 0 mm 6 mps 716 mmHg 92%
18:00 -6°C° 0 mm 5 mps 716 mmHg 93%
19:00 -5°C° 0 mm 4 mps 716 mmHg 94%
20:00 -7°C° 0 mm 4 mps 716 mmHg 94%
21:00 -7°C° 0 mm 4 mps 716 mmHg 94%
22:00 -8°C° 0 mm 4 mps 716 mmHg 94%
23:00 -7°C° 0 mm 4 mps 716 mmHg 94%

Tomorrow, 4 March, Thursday

Time Temperature Precipitation Wind Pressure Humidity
00:00 -7°C° 0 mm 4 mps 715 mmHg 94%
01:00 -7°C° 0 mm 4 mps 715 mmHg 94%
02:00 -9°C° 0 mm 4 mps 715 mmHg 93%
03:00 -10°C° 0 mm 4 mps 715 mmHg 92%
04:00 -11°C° 0 mm 4 mps 716 mmHg 90%
05:00 -12°C° 0 mm 4 mps 716 mmHg 90%
06:00 -14°C° 0 mm 5 mps 716 mmHg 90%
07:00 -15°C° 0 mm 5 mps 717 mmHg 90%
08:00 -16°C° 0 mm 6 mps 717 mmHg 89%
09:00 -15°C° 0 mm 6 mps 718 mmHg 87%
10:00 -14°C° 0 mm 6 mps 719 mmHg 85%
11:00 -13°C° 0 mm 7 mps 719 mmHg 85%
12:00 -13°C° 0 mm 7 mps 719 mmHg 84%
13:00 -12°C° 0 mm 7 mps 719 mmHg 83%
14:00 -12°C° 0 mm 7 mps 719 mmHg 83%
15:00 -13°C° 0 mm 7 mps 719 mmHg 84%
16:00 -13°C° 0 mm 7 mps 720 mmHg 84%
17:00 -14°C° 0 mm 7 mps 720 mmHg 86%
18:00 -14°C° 0 mm 7 mps 720 mmHg 87%
19:00 -15°C° 0 mm 7 mps 720 mmHg 89%
20:00 -14°C° 0 mm 7 mps 720 mmHg 89%
21:00 -13°C° 0 mm 8 mps 720 mmHg 89%
22:00 -13°C° 0 mm 8 mps 719 mmHg 88%
23:00 -12°C° 0 mm 9 mps 719 mmHg 88%

Day after tomorrow, 5 March, Friday

Time Temperature Precipitation Wind Pressure Humidity
00:00 -11°C° 0 mm 9 mps 719 mmHg 88%
01:00 -10°C° 0 mm 9 mps 718 mmHg 88%
02:00 -9°C° 0.1 mm 9 mps 718 mmHg 88%
03:00 -9°C° 0.1 mm 9 mps 718 mmHg 87%
04:00 -9°C° 0.1 mm 9 mps 718 mmHg 87%
05:00 -8°C° 0 mm 9 mps 719 mmHg 87%
06:00 -8°C° 0 mm 9 mps 719 mmHg 87%
07:00 -8°C° 0 mm 9 mps 719 mmHg 88%
08:00 -8°C° 0 mm 10 mps 720 mmHg 88%
09:00 -8°C° 0 mm 10 mps 720 mmHg 87%
10:00 -7°C° 0 mm 10 mps 720 mmHg 87%
11:00 -7°C° 0 mm 10 mps 720 mmHg 87%
12:00 -7°C° 0 mm 10 mps 720 mmHg 88%
13:00 -7°C° 0 mm 11 mps 720 mmHg 88%
14:00 -6°C° 0.1 mm 11 mps 720 mmHg 89%
15:00 -6°C° 0.1 mm 11 mps 720 mmHg 90%
16:00 -6°C° 0.1 mm 11 mps 720 mmHg 91%
17:00 -5°C° 0.2 mm 10 mps 719 mmHg 91%
18:00 -5°C° 0.2 mm 10 mps 719 mmHg 91%
19:00 -5°C° 0.2 mm 10 mps 719 mmHg 92%
20:00 -4°C° 0.3 mm 10 mps 719 mmHg 92%
21:00 -4°C° 0.3 mm 10 mps 719 mmHg 93%
22:00 -4°C° 0.3 mm 10 mps 719 mmHg 94%
23:00 -4°C° 0.2 mm 10 mps 719 mmHg 93%

6 March, Saturday

Time Temperature Precipitation Wind Pressure Humidity
00:00 -4°C° 0.2 mm 10 mps 719 mmHg 93%
01:00 -4°C° 0.2 mm 10 mps 719 mmHg 92%
02:00 -5°C° 0.2 mm 8 mps 720 mmHg 91%
03:00 -6°C° 0.2 mm 7 mps 720 mmHg 90%
04:00 -5°C° 0.2 mm 6 mps 721 mmHg 89%
05:00 -8°C° 0 mm 5 mps 721 mmHg 89%
06:00 -10°C° 0 mm 4 mps 721 mmHg 90%
07:00 -10°C° 0 mm 2 mps 722 mmHg 90%
08:00 -9°C° 0 mm 2 mps 722 mmHg 87%
09:00 -9°C° 0 mm 2 mps 722 mmHg 85%
10:00 -7°C° 0 mm 1 mps 723 mmHg 83%
11:00 -6°C° 0 mm 1 mps 723 mmHg 79%
12:00 -6°C° 0 mm 1 mps 723 mmHg 76%
13:00 -4°C° 0 mm 1 mps 723 mmHg 73%
14:00 -6°C° 0.2 mm 2 mps 722 mmHg 80%
15:00 -7°C° 0.2 mm 3 mps 721 mmHg 88%
16:00 -8°C° 0.2 mm 3 mps 720 mmHg 95%
17:00 -8°C° 1.4 mm 3 mps 719 mmHg 95%
18:00 -8°C° 1.4 mm 3 mps 719 mmHg 96%
19:00 -8°C° 1.4 mm 3 mps 718 mmHg 96%
20:00 -7°C° 0.9 mm 3 mps 717 mmHg 96%
21:00 -7°C° 0.9 mm 3 mps 717 mmHg 96%
22:00 -6°C° 0.9 mm 3 mps 716 mmHg 96%
23:00 -5°C° 0.4 mm 4 mps 716 mmHg 96%

7 March, Sunday

Time Temperature Precipitation Wind Pressure Humidity
00:00 -6°C° 0.4 mm 5 mps 716 mmHg 96%
01:00 -5°C° 0.4 mm 6 mps 716 mmHg 96%
02:00 -7°C° 0.1 mm 5 mps 716 mmHg 94%
03:00 -10°C° 0.1 mm 5 mps 716 mmHg 93%
04:00 -10°C° 0.1 mm 4 mps 717 mmHg 91%
05:00 -12°C° 0 mm 4 mps 717 mmHg 92%
06:00 -14°C° 0 mm 3 mps 718 mmHg 92%
07:00 -16°C° 0 mm 3 mps 718 mmHg 92%
08:00 -15°C° 0 mm 3 mps 719 mmHg 91%
09:00 -14°C° 0 mm 3 mps 720 mmHg 90%
10:00 -14°C° 0 mm 4 mps 721 mmHg 89%
11:00 -12°C° 0 mm 4 mps 721 mmHg 86%
12:00 -11°C° 0 mm 4 mps 721 mmHg 83%
13:00 -10°C° 0 mm 4 mps 722 mmHg 80%
14:00 -11°C° 0 mm 4 mps 722 mmHg 81%
15:00 -11°C° 0 mm 4 mps 722 mmHg 83%
16:00 -12°C° 0 mm 4 mps 722 mmHg 84%
17:00 -15°C° 0 mm 4 mps 722 mmHg 87%
18:00 -17°C° 0 mm 4 mps 722 mmHg 89%
19:00 -19°C° 0 mm 4 mps 723 mmHg 91%
20:00 -20°C° 0 mm 4 mps 723 mmHg 92%
21:00 -23°C° 0 mm 4 mps 723 mmHg 94%
22:00 -24°C° 0 mm 4 mps 724 mmHg 95%
23:00 -24°C° 0 mm 3 mps 724 mmHg 95%

8 March, Monday

Time Temperature Precipitation Wind Pressure Humidity
00:00 -24°C° 0 mm 3 mps 724 mmHg 95%
01:00 -25°C° 0 mm 3 mps 724 mmHg 95%
02:00 -25°C° 0 mm 3 mps 724 mmHg 94%
03:00 -24°C° 0 mm 2 mps 724 mmHg 93%
04:00 -24°C° 0 mm 2 mps 724 mmHg 93%
05:00 -24°C° 0 mm 2 mps 723 mmHg 91%
06:00 -23°C° 0 mm 2 mps 723 mmHg 90%
07:00 -23°C° 0 mm 3 mps 723 mmHg 88%
08:00 -20°C° 0 mm 4 mps 723 mmHg 87%
09:00 -18°C° 0 mm 5 mps 723 mmHg 85%
10:00 -15°C° 0 mm 7 mps 723 mmHg 84%
11:00 -14°C° 0 mm 7 mps 722 mmHg 84%
12:00 -13°C° 0 mm 8 mps 722 mmHg 85%
13:00 -12°C° 0 mm 8 mps 722 mmHg 86%
14:00 -12°C° 0.1 mm 9 mps 721 mmHg 86%
15:00 -12°C° 0.1 mm 9 mps 721 mmHg 87%
16:00 -11°C° 0.1 mm 9 mps 720 mmHg 88%
17:00 -11°C° 0.1 mm 9 mps 720 mmHg 89%
18:00 -11°C° 0.1 mm 9 mps 720 mmHg 90%
19:00 -11°C° 0.1 mm 9 mps 720 mmHg 91%
20:00 -11°C° 0.1 mm 8 mps 720 mmHg 90%
21:00 -11°C° 0.1 mm 8 mps 720 mmHg 89%
22:00 -11°C° 0.1 mm 7 mps 720 mmHg 89%
23:00 -11°C° 0 mm 6 mps 721 mmHg 89%
Show more